Regional Weather Roundup
Issued by NWS Cleveland, OH

Home | Current Version | Previous Version | Text Only | Print | Product List | Glossary On
Versions: 1 2 3 4 5 6 7 8 9 10 11 12 13 14 15 16 17 18 19 20 21 22 23 24 25 26 27 28 29 30 31 32 33 34 35 36 37 38 39 40 41 42 43 44 45 46 47 48 49 50
000
ASUS41 KCLE 130412
RWRCLE
OHIO REGIONAL WEATHER ROUNDUP
NATIONAL WEATHER SERVICE WILMINGTON, OH
1100 PM EST TUE DEC 12 2017

NOTE: "FAIR" INDICATES FEW OR NO CLOUDS BELOW 12,000 FEET WITH NO
SIGNIFICANT WEATHER AND/OR OBSTRUCTIONS TO VISIBILITY.

OHZ001>008-015>018-024>027-034-035-043-044-130500-
   NORTHWEST OHIO

CITY           SKY/WX    TMP DP  RH WIND       PRES   REMARKS
DEFIANCE       CLOUDY    19  10  68 NW7       29.95S WCI  10
FINDLAY        CLOUDY    20   7  57 NW10      29.92S WCI   9
TOLEDO EXPRESS CLOUDY    18   7  62 W8        29.92F WCI   8
TOLEDO EXEC    CLOUDY    18   4  54 W9        29.93F WCI   7
LIMA           LGT SNOW  18  16  92 NW10      29.92F FOG     WCI   6
$$

OHZ009>014-019>023-028>033-038-089-130500-
   NORTHEAST OHIO

CITY           SKY/WX    TMP DP  RH WIND       PRES   REMARKS
CLE-HOPKINS    CLOUDY    19   4  51 NW22G28   29.87S WCI   2
CLE-LAKEFRONT  CLOUDY    20   8  60 NW26G38   29.84S WCI   2
CUY CO. ARPT   CLOUDY    19   7  58 W23       29.82S WCI   2
LORAIN-ELYRIA  CLOUDY    18   4  54 N16G23    29.86F WCI   3
ASHTABULA      FLURRIES  16   6  65 W14G24    29.77S WCI   2
AKRON-CANTON   LGT SNOW  16  10  77 W12       29.81S VSB 1   WCI   3
WOOSTER        MOCLDY    14   7  73 NW15      29.85S WCI  -1
MANSFIELD      CLOUDY    15   4  61 NW8       29.86R WCI   4
YOUNGSTOWN     LGT SNOW  15  11  83 W12       29.75F VSB 3/4 WCI   2
$$

OHZ042-051>053-060>062-070>072-077>081-130500-
  SOUTHWEST OHIO

CITY           SKY/WX    TMP DP  RH WIND       PRES   REMARKS
CINC-COVINGTON FAIR      19  10  68 W5        30.00S WCI  12
CINC-LUNKEN    FAIR      21   8  57 NW3       30.05S
HAMILTON       FAIR      16   9  74 CALM      30.03S
DAYTON         CLOUDY    19  10  68 W14       29.96F WCI   6
WRIGHT-PAT AFB CLOUDY    21   7  55 W12       29.96F WCI   9
DAYTON GENERAL FAIR      19   7  59 W9        29.97S WCI   8
WILMINGTON     CLOUDY    19   9  65 W14       29.96S WCI   6
$$

OHZ036-037-039>041-045>050-054>059-063>069-073>076-082>088-130500-
  CENTRAL AND SOUTHEAST OHIO

CITY           SKY/WX    TMP DP  RH WIND       PRES   REMARKS
COLUMBUS       LGT SNOW  19  16  88 NW15      29.93S VSB 1   WCI   5
OSU AIRPORT    LGT SNOW  18  15  88 NW8       29.93S VSB 1   WCI   8
BOLTON FIELD   CLOUDY    20  13  73 W9        29.94S WCI   9
RICKENBACK AFB CLOUDY    20  16  86 W9        29.94S WCI   9
NEWARK         CLOUDY    21   8  57 W14G22    29.91S WCI   8
MARION         CLOUDY    19   5  54 NW12G23   29.91S WCI   7
LANCASTER      LGT SNOW  18  16  92 NW9       29.93S FOG     WCI   7
ZANESVILLE     CLOUDY    20   6  55 W13G22    29.89S WCI   7
NEW PHILLY     FAIR      16   3  56 W8        29.87S WCI   5
$$




USA.gov is the U.S. government's official web portal to all federal, state and local government web resources and services.